[[{"header":{"parameterUnit":"m.s-1","parameterCategory":1,"la1":30.2992,"la2":30.254,"lo1":-89.0895,"lo2":-89.0443,"dy":0.0025,"dx":0.0025,"nx":19,"ny":19,"refTime":"2026-05-22T03:00:00:Z","depth":0,"parameterNumber":2,"parameterNumberName":"U-component_of_WINDS"},"data":[0,0,0,0.7744,0.7744,0.773,0.773,0.7718,0.7718,0,0,0,0,0,0,0,0,0,0,0,0.7753,0.7754,0.7744,0.7744,0.773,0.773,0.7718,0.7718,0,0,0,0,0,0,0,0,0,0,0,0.7753,0.7754,0.7754,0.7744,0.773,0.773,0.7718,0.7726,0,0,0,0,0,0,0,0,0,0,0.7738,0.7754,0.7754,0.7754,0.7743,0.773,0.773,0.7726,0.7726,0.7728,0,0.7733,0,0.7725,0.7718,0.7718,0,0,0,0.7739,0.7754,0.7745,0.7754,0.7743,0.773,0.7735,0.7726,0.7725,0.7727,0.7732,0.7732,0.7725,0.7718,0.7718,0.7745,0.7746,0,0,0.774,0.7754,0.7746,0.7745,0.7749,0.7735,0.7734,0.7725,0.7732,0.7732,0.7731,0.7725,0.7718,0.7718,0.7745,0.7745,0,0,0,0.7745,0.7755,0.7746,0.7746,0.7743,0.7735,0.7734,0.7732,0.7728,0.7731,0.7725,0.7718,0.7718,0.7745,0.7745,0.7775,0,0,0,0.7745,0.7758,0.7746,0.7755,0.7743,0.7738,0.7741,0.7729,0.7727,0.7725,0.7718,0.7718,0.7744,0.7745,0.7773,0.7787,0,0,0,0.7752,0.7758,0.7758,0.7756,0.775,0.7737,0.7733,0.7728,0.7724,0.7718,0.7718,0.7744,0.7745,0.7772,0.7784,0.7797,0,0,0,0.7764,0.7786,0.7759,0.7781,0.775,0.7756,0.7733,0.7736,0.7735,0.7718,0.7744,0.7745,0.7771,0.7783,0.7796,0.7811,0.7818,0,0,0.78,0.7791,0.7802,0.7778,0.7792,0.7757,0.7774,0.776,0.7747,0.7746,0.7747,0.7774,0.7784,0.7797,0.7855,0.7861,0,0,0,0.7818,0.7827,0.7827,0.7826,0.7815,0.7806,0.7787,0.7781,0.778,0.775,0.7781,0.7787,0.7794,0.78,0.7805,0.781,0.7749,0.7749,0.7749,0.7891,0.7871,0.7887,0.7865,0.7864,0.7842,0.7839,0.7827,0.7809,0.7816,0.7816,0.7854,0.7862,0.7866,0.787,0.7822,0.7822,0.7822,0.7822,0.7941,0.7949,0.7921,0.7927,0.7905,0.7909,0.7888,0.7874,0.7873,0.7853,0.7858,0.7838,0.7873,0.7876,0.7824,0.7824,0.7824,0.7824,0.7823,0.7986,0.7987,0.7978,0.7972,0.7969,0.7944,0.7944,0.7924,0.7905,0.791,0.7907,0.7906,0.7903,0.7909,0.791,0.791,0.791,0.791,0.791,0.8038,0.8026,0.803,0.8016,0.8011,0.8001,0.7977,0.797,0.7958,0.7943,0.7943,0.7923,0.788,0.787,0.7912,0.7912,0.7911,0.7911,0.7911,0.8097,0.8079,0.8085,0.8079,0.806,0.8057,0.8029,0.8017,0.8009,0.8009,0.7986,0.7958,0.7948,0.7944,0.7935,0.7991,0.7991,0.7991,0.7991,0.8136,0.8128,0.8126,0.8118,0.8108,0.8083,0.8086,0.8065,0.8041,0.8033,0.8022,0.8008,0.8005,0.7997,0.7991,0.7983,0.805,0.805,0.805,0.8171,0.816,0.8169,0.8144,0.8126,0.8111,0.8113,0.8103,0.8071,0.8052,0.8027,0.8024,0.8002,0.7996,0.7979,0.7971,0.7956,0,0]},{"header":{"parameterUnit":"m.s-1","parameterCategory":1,"la1":30.2992,"la2":30.254,"lo1":-89.0895,"lo2":-89.0443,"dy":0.0025,"dx":0.0025,"nx":19,"ny":19,"refTime":"2026-05-22T03:00:00:Z","depth":0,"parameterNumber":3,"parameterNumberName":"V-component_of_WINDS"},"data":[0,0,0,6.5913,6.5912,6.5839,6.5839,6.5784,6.5783,0,0,0,0,0,0,0,0,0,0,0,6.5959,6.596,6.5913,6.5912,6.5839,6.5839,6.5784,6.5783,0,0,0,0,0,0,0,0,0,0,0,6.5959,6.5959,6.596,6.5912,6.5839,6.5839,6.5784,6.5825,0,0,0,0,0,0,0,0,0,0,6.5888,6.5956,6.5959,6.596,6.5911,6.5839,6.5839,6.5826,6.5822,6.5833,0,6.5851,0,6.5817,6.5782,6.5782,0,0,0,6.5893,6.5959,6.5917,6.596,6.5911,6.584,6.5867,6.5823,6.5819,6.5828,6.585,6.5847,6.5816,6.5782,6.5782,6.5914,6.5915,0,0,6.5897,6.5959,6.5921,6.5916,6.5931,6.5869,6.5865,6.582,6.5847,6.585,6.5845,6.5815,6.5782,6.5782,6.5912,6.5914,0,0,0,6.5921,6.5963,6.5921,6.5919,6.5903,6.5867,6.5862,6.5849,6.583,6.5844,6.5814,6.5782,6.5782,6.5911,6.5913,6.6049,0,0,0,6.5923,6.5976,6.5924,6.5961,6.5905,6.5876,6.5893,6.5834,6.5826,6.5815,6.5782,6.5782,6.5909,6.5912,6.6042,6.6103,0,0,0,6.5955,6.598,6.5978,6.5964,6.5935,6.5875,6.5853,6.5831,6.581,6.5782,6.5782,6.5908,6.5911,6.6035,6.6092,6.6157,0,0,0,6.6008,6.6099,6.5981,6.6072,6.5937,6.596,6.5853,6.5866,6.5859,6.5782,6.5909,6.5913,6.6033,6.6085,6.6151,6.6224,6.626,0,0,6.6157,6.6119,6.6167,6.606,6.6121,6.5966,6.6045,6.5979,6.5918,6.5918,6.5921,6.6044,6.6091,6.6156,6.6439,6.6469,0,0,0,6.6236,6.6272,6.6274,6.6271,6.6224,6.6187,6.6103,6.6078,6.6075,6.5932,6.6082,6.6109,6.6144,6.6176,6.6201,6.6227,6.593,6.593,6.5929,6.6538,6.6457,6.6531,6.6442,6.644,6.6351,6.6342,6.6293,6.621,6.6247,6.6248,6.643,6.647,6.6488,6.6517,6.6278,6.6279,6.6279,6.628,6.6751,6.6789,6.6678,6.6711,6.6624,6.6649,6.6567,6.6508,6.6518,6.6423,6.6449,6.6354,6.6523,6.6543,6.6289,6.6287,6.6286,6.6285,6.6285,6.6942,6.6946,6.6915,6.6902,6.69,6.6804,6.682,6.6739,6.6663,6.669,6.6681,6.6679,6.6667,6.6691,6.6692,6.6692,6.6693,6.6693,6.6694,6.7152,6.7112,6.7137,6.7094,6.7081,6.7054,6.6965,6.695,6.6912,6.6851,6.6851,6.6766,6.6554,6.6504,6.6703,6.6701,6.67,6.6699,6.6699,6.7402,6.7332,6.737,6.7358,6.73,6.7304,6.72,6.7176,6.7151,6.7161,6.7069,6.6925,6.688,6.686,6.6818,6.7086,6.7086,6.7086,6.7086,6.7564,6.7533,6.7553,6.7538,6.7514,6.7424,6.7468,6.7399,6.7317,6.7296,6.7245,6.7181,6.7164,6.7128,6.7102,6.7062,6.7386,6.7386,6.7387,6.7713,6.7676,6.7731,6.765,6.7599,6.7557,6.7595,6.7581,6.7473,6.7397,6.7278,6.7265,6.7162,6.7132,6.7057,6.7018,6.6941,0,0]}]]